Regional Weather Roundup
Issued by NWS Upton, NY

Current Version | Previous Version | Graphics & Text | Print | Product List | Glossary Off
Versions: 1 2 3 4 5 6 7 8 9 10 11 12 13 14 15 16 17 18 19 20 21 22 23 24 25 26 27 28 29 30 31 32 33 34 35 36 37 38 39 40 41 42 43 44 45 46 47 48 49 50

000
ASUS41 KOKX 211205
RWROKX

REGIONAL WEATHER ROUNDUP
NATIONAL WEATHER SERVICE NEW YORK NY
800 AM EDT MON JUL 21 2014

NOTE: "FAIR" INDICATES FEW OR NO CLOUDS BELOW 12,000 FEET WITH NO
SIGNIFICANT WEATHER AND/OR OBSTRUCTIONS TO VISIBILITY.

NYZ071-072-176-178-NJZ106-104-211300-
NEW YORK CITY METRO AREA


CITY           SKY/WX    TMP DP  RH WIND       PRES   REMARKS
CENTRAL PARK   SUNNY     69  60  73 CALM      30.23R
LAGUARDIA APRT PTSUNNY   70  61  73 NE5       30.19R
KENNEDY INTL   PTSUNNY   71  61  70 NE5       30.21R
NEWARK/LIBERTY MOSUNNY   71  63  75 N5        30.20R
BRNX BOT. GARD   N/A     72  63  73 CALM      30.22R
TETERBORO      SUNNY     71  59  65 N3        30.19R
$$

NYZ177-179-078>081-211300-
LONG ISLAND NEW YORK

CITY           SKY/WX    TMP DP  RH WIND       PRES   REMARKS
FARMINGDALE    SUNNY     68  63  84 N7        30.20R
ISLIP          MOSUNNY   69  63  81 N8        30.19R
SHIRLEY        MOSUNNY   67  62  84 N8        30.20R
WESTHAMPTON    MOSUNNY   68  61  78 N9        30.21R
MONTAUK POINT    N/A     65  60  84 NW7       30.20R
$$

NYZ052-065-067-211300-
HUDSON VALLEY

CITY           SKY/WX    TMP DP  RH WIND       PRES   REMARKS
WHITE PLAINS   SUNNY     67  63  87 CALM      30.21R
NEWBURGH       SUNNY     64  61  88 CALM      30.22R
MONTGOMERY       N/A     64  61  90 MISG      30.21R
POUGHKEEPSIE   SUNNY     65  60  84 CALM      30.20R
ALBANY         PTSUNNY   68  57  68 S5        30.20R
$$

NJZ001-105-106-008-010-013-015-019>022-104-211300-
NEW JERSEY

CITY           SKY/WX    TMP DP  RH WIND       PRES   REMARKS
NEWARK/LIBERTY MOSUNNY   71  63  75 N5        30.20R
TETERBORO      SUNNY     71  59  65 N3        30.19R
CALDWELL       SUNNY     66  61  84 CALM      30.21S
MORRISTOWN     PTSUNNY   66  64  94 CALM      30.21R
SOMERVILLE     SUNNY     66  61  84 NW3       30.19R
LINDEN         FAIR      71  63  76 NW5       30.22R
SUSSEX         PTSUNNY   64  60  87 CALM      30.21R
ANDOVER          N/A     64  62  93 CALM      30.22R
TRENTON        SUNNY     67  62  84 N3        30.20R
MILLVILLE      SUNNY    N/A N/A N/A N6        30.20R
ATLANTIC CITY  SUNNY     67  65  93 N5        30.19R
WRIGHTSTOWN    SUNNY     67  64  89 N2        30.19R
TOMS RIVER     SUNNY     64  63  94 CALM      30.20S
BELMAR         SUNNY     66  61  82 N6        30.19S
$$

PAZ047>061-062-071-211300-
EASTERN PENNSYLVANIA

CITY           SKY/WX    TMP DP  RH WIND       PRES   REMARKS
PHILADELPHIA   MOSUNNY   72  61  68 CALM      30.21R
ALLENTOWN      SUNNY     68  62  81 CALM      30.22R
SCRANTON       PTSUNNY   67  61  81 CALM      30.21R
$$

CTZ002-004>006-009-010-012-RIZ004-006-007-MAZ004-011-015-211300-
SOUTHERN NEW ENGLAND
 IN CT

CITY           SKY/WX    TMP DP  RH WIND       PRES   REMARKS
BRADLEY INTL   MOSUNNY   65  58  78 N6        30.21R
HARTFORD       SUNNY     65  58  78 NE6       30.21R
DANBURY        SUNNY     64  59  83 CALM      30.23R
WTRBRY/OXFORD  SUNNY     63  55  77 CALM      30.23R
BRIDGEPORT     SUNNY     68  59  73 N7        30.20R
MERIDEN        SUNNY     66  58  75 CALM      30.21R
NEW HAVEN      MOSUNNY   67  60  78 N8        30.21R
CHESTER        FAIR      64  59  82 N5        30.22R
GROTON         MOSUNNY   61  58  90 N12       30.19R
WILLIMANTIC    PTSUNNY   60  58  92 N6        30.21R

 IN RI

CITY           SKY/WX    TMP DP  RH WIND       PRES   REMARKS
PROVIDENCE     PTSUNNY   65  59  81 N9        30.19R
BLOCK ISLAND   CLOUDY    64  61  88 N8        30.18R
WESTERLY       CLOUDY    65  59  81 N7        30.19R

 IN MA

CITY           SKY/WX    TMP DP  RH WIND       PRES   REMARKS
BOSTON         MOSUNNY   67  60  78 N7        30.20R
WORCESTER      MOSUNNY   62  57  83 N7        30.23R
WESTFIELD      SUNNY     64  59  83 CALM      30.22R
PROVINCETOWN   PTSUNNY   64  63  94 N7        30.18R
NANTUCKET      LGT RAIN  64  62  93 N17       30.14R FOG
$$

ANZ330-335-338-340-345-350-353-355-211300-
COASTAL MARINE OBSERVATIONS


STATION/POSITION TIME  SKY/WX   TEMP    WIND        PRES    VSBY  WAVE
                                AIR SEA DIR/SP/G                  HT/PER
                 (UTC)          (F)     (DEG/KT/KT) (MB)    (MI)  (FT/S)
NY HARB ENTRANCE NOT AVBL
4S FIRE IS       NOT AVBL
23SW MTP         1200            65 70              1021.4          4/ 8
HUDSON CANYON    1200            69 72  360/ 12/ 16 1021.1          4/ 6
EXECUTION ROCKS  1200            68 70   10/  4/  6   N/A
WESTERN LI SOUND 1200            68      10/  4/  4   N/A           0
CENTRAL LI SOUND 1100            65 71  360/  8/ 10   N/A           1
EASTERN LI SOUND 1100            65 65   10/ 10/ 12   N/A
ROBBINS REEF     1200            68     360/  5/  6   N/A
$$


>>>>>>>>>>>>>>>>>>>>>>>>>>>> KEY <<<<<<<<<<<<<<<<<<<<<<<<<<<
>                                                          <
>     SKY/WX - SKY CONDITION/PRESENT WEATHER               <
>     TMP    - TEMPERATURE IN FAHRENHEIT                   <
>     DP     - DEWPOINT IN FAHRENHEIT                      <
>     RH     - RELATIVE HUMIDITY IN PERCENT                <
>     WIND   - DIRECTION AND SPEED IN MPH                  <
>     PRES   - MEAN SEA LEVEL PRESSURE IN INCHES OF HG     <
>     WCI    - WIND CHILL INDEX                            <
>     VSB    - VISIBILITY IN MILES                         <
>     HX     - HEAT INDEX                                  <
>     TC     - TEMPERATURE IN CELSIUS                      <
>     VRB    - VARIABLE WIND DIRECTION                     <
>                                                          <
>>>>>>>>>>>>>>>>>>>>>>>>>>>> KEY <<<<<<<<<<<<<<<<<<<<<<<<<<<





USA.gov is the U.S. government's official web portal to all federal, state and local government web resources and services.